Lid_Strength_Index
0 -0 0 3 11 12 15 13 10 10 9 6 5 7 8 7 10 12 2 1 0 0 -0 -1 -2 -2 -1 -2 -2 -2 -2 -2 -2 -2 -2 -2 -2 -1 -1 -1 -1 -2 -2 -2 -1 -1 -1 -1 -2
0 1 2 6 13 16 15 10 11 9 7 6 6 6 8 9 5 4 3 0 0 -0 -0 -0 -1 -2 -2 -2 -2 -2 -2 -2 -2 -2 -2 -1 -1 -1 -2 -2 -2 -1 -1 -1 -2 -1 -2 -1 -2
0 1 7 10 13 16 15 10 10 8 6 6 7 5 7 8 4 4 1 0 -0 -0 -0 -0 -2 -2 -2 -1 -2 -2 -2 -2 -1 -2 -2 -2 -2 -2 -1 -1 -1 -1 -1 -1 -1 -2 -1 -1 -1
2 4 6 12 13 11 11 10 8 8 6 6 6 8 5 3 4 2 1 0 0 -0 0 -1 -2 -2 -2 -1 -1 -2 -2 -1 -1 -2 -2 -2 -2 -2 -2 -2 -1 -1 -1 -1 -1 -1 -1 -1 -1
3 6 12 13 12 10 9 7 7 8 7 7 6 9 8 3 1 1 1 0 1 0 0 -0 -2 -2 -1 -1 -1 -1 -2 -2 -1 -2 -2 -2 -1 -1 -1 -1 -1 -1 -1 -1 -1 -1 -1 -1 -1
7 7 13 15 12 9 8 7 7 7 7 7 7 8 7 2 2 1 0 1 0 0 -0 -0 -1 -2 -1 -2 -1 -2 -1 -1 -1 -1 -1 -1 -1 -1 -1 -1 -1 -1 -1 -1 -1 -1 -1 -1 -1
8 10 13 13 12 11 9 6 8 8 8 7 5 9 6 4 2 1 1 0 0 -0 -0 0 -0 -1 -2 -2 -1 -2 -1 -1 -2 -1 -1 -1 -1 -1 -1 -1 -1 -1 -1 -1 -1 -1 -1 -1 -1
6 9 12 12 13 12 8 7 6 7 8 4 4 9 9 4 2 1 1 1 0 0 -0 -0 0 -0 -0 -0 -2 -2 -1 -2 -1 -1 -1 -1 -1 -1 -1 -1 -1 -1 -1 -1 -1 -1 -1 -1 -1
4 11 13 11 12 10 7 8 5 4 6 5 4 5 4 2 2 2 2 2 1 1 0 0 0 0 -0 -0 -1 -2 -2 -1 -2 -1 -1 -1 1 0 -0 -1 -1 -1 -1 -1 -1 -1 -1 -1 -1
7 11 11 8 8 9 7 7 7 7 7 7 6 4 3 3 3 3 4 4 3 2 1 0 0 -0 -0 0 0 -0 -0 -0 0 0 0 0 1 0 -1 -1 -1 -1 -1 -1 -1 -1 -1 -1 -1
7 10 7 7 7 7 8 7 6 8 9 7 8 6 4 4 4 4 3 3 3 2 1 0 0 -0 -0 0 0 0 1 0 1 0 0 0 0 -0 -1 -1 0 -1 -1 -1 -1 -1 -1 -1 -1
8 6 6 7 6 7 8 6 7 7 7 5 5 4 4 4 4 4 4 3 2 2 1 0 0 0 0 0 0 1 1 1 1 1 2 1 1 -0 -0 -0 -0 -1 -1 -1 -1 -1 -1 -1 -1
8 7 6 6 6 7 6 7 7 7 5 4 4 4 5 4 4 3 3 2 2 2 1 1 0 0 1 1 0 1 1 1 0 1 1 2 1 0 0 -0 -0 -0 -1 -1 -1 -1 -1 -1 -1
6 7 7 6 7 6 8 8 7 6 5 5 5 5 5 4 4 3 3 3 2 2 1 1 1 0 1 0 0 1 2 2 2 1 1 1 1 0 -0 -0 -0 0 -0 -1 -1 -1 -1 -0 -0
6 9 8 7 7 8 7 9 9 6 5 6 6 5 5 4 3 4 3 3 2 2 1 1 1 0 1 0 1 1 1 2 2 1 1 1 1 1 -0 -0 -0 -0 -1 -1 -1 -0 -1 -0 -0
8 9 12 8 8 7 8 13 8 6 6 7 6 6 5 4 4 3 2 2 2 2 1 1 0 0 0 0 1 2 2 2 1 1 0 1 0 0 0 -0 -0 -0 -1 -0 -0 -0 0 0 0
10 14 12 10 7 8 9 12 8 6 7 7 6 6 5 5 4 3 2 2 2 2 1 1 1 1 0 1 1 2 2 2 1 -0 -0 -0 -1 -1 0 -0 -0 -1 -1 0 0 0 0 1 1
13 13 11 12 9 8 10 10 8 7 7 7 7 6 6 5 4 3 2 2 2 2 1 1 1 1 1 1 1 2 1 1 1 0 -0 -0 -0 -1 -0 0 -0 -1 -0 0 0 0 0 1 1
10 10 11 10 8 9 10 10 9 8 7 7 7 6 6 5 4 3 2 2 2 2 2 1 1 1 1 1 1 2 2 1 1 -0 -0 -1 -0 -1 -0 -0 -0 -0 0 1 0 0 1 1 0
10 10 11 9 8 9 10 11 9 8 8 7 7 7 6 5 5 4 3 2 2 3 2 1 1 1 1 1 1 1 1 0 0 0 0 -0 -1 -1 -0 -0 -0 0 0 1 0 1 1 1 0
11 12 11 10 9 9 11 12 11 8 7 7 6 6 5 5 5 4 4 3 2 3 2 2 1 1 1 0 0 1 1 1 1 1 1 0 -0 -0 -0 0 0 0 0 1 1 0 1 2 1
12 9 8 10 12 15 11 16 12 10 9 8 7 6 6 5 4 4 4 3 3 2 2 1 1 1 1 0 1 2 2 3 2 1 1 1 1 0 -0 -0 -0 0 1 1 0 0 1 1 2
9 8 9 10 13 13 13 14 12 11 11 9 7 6 6 5 5 4 4 3 2 2 2 1 1 1 1 1 1 1 2 2 1 1 1 1 0 -0 0 1 0 -0 -0 -0 0 0 1 1 1
8 11 12 14 15 16 14 14 13 13 11 9 8 6 6 5 5 4 3 3 3 2 2 2 2 1 1 1 1 1 2 2 2 2 2 1 1 1 1 2 1 -0 0 0 -0 0 0 1 1
11 13 16 16 17 16 15 13 13 10 9 8 8 7 6 5 5 5 4 4 3 2 2 2 2 2 1 1 1 1 1 1 2 2 2 2 2 1 1 2 2 1 -0 -0 -0 0 0 0 1
12 13 15 17 18 16 12 15 12 9 8 7 6 6 6 6 5 4 4 4 3 3 2 2 2 2 1 1 1 1 1 1 1 1 2 3 2 1 1 1 1 1 1 -0 -0 0 0 0 0
13 15 13 16 18 16 15 13 9 9 9 8 8 7 7 6 5 5 4 4 3 3 3 2 2 2 2 3 3 3 1 1 1 1 1 2 1 1 1 1 1 1 1 2 2 2 2 0 0
12 11 15 16 17 18 15 16 14 11 10 9 9 8 7 6 5 5 4 4 3 2 2 3 4 6 5 4 3 3 3 3 1 1 1 1 1 1 1 1 1 1 1 1 2 1 1 1 1
11 12 15 15 16 17 17 15 10 10 9 9 8 7 7 6 5 5 4 3 3 3 2 2 3 4 4 3 3 3 2 2 2 1 1 0 1 1 1 1 1 1 0 -0 0 1 0 1 1
11 12 14 15 16 15 15 14 9 9 9 8 8 7 6 6 5 5 4 4 3 3 2 3 3 2 2 2 2 2 1 1 1 1 1 1 2 1 1 1 1 1 0 0 0 1 0 1 1